Weather in Ushakovo

Russia / Amur Oblast     51°52′45″N   126°33′33″E
temp.,
°C
wind,
m/s
gust,
m/s
humid.,
%
clouds,
%
prec.,
mm/h
press.,
hPa
HPBL,
m
9 may, sun
sun900:00+4n257051 0.0 1003106
03:00+2n2479100 0.0 100497
06:00+2nnw1581100 0.0 1006201
09:00+6n4564100 0.0 10071060
12:00+7n3560100 0.0 10081180
15:00+9nne3449100 0.1 10071509
18:00+9nne3449100 0.0 10081279
21:00+5nne1170100 0.0 100910
10 may, mon
mon1000:00+3wnw1176100 0.0 101010
03:00+2nw118092 0.0 101111
06:00+3nw127793 0.0 101275
09:00+9nnw234998 0.0 1012797
12:00+14nnw2436100 0.0 10111733
15:00+16nnw2329100 0.0 10102488
18:00+15ne2229100 0.0 10102147
21:00+8e386299 0.0 1012181
11 may, tue
tue1100:00+6se248326 0.0 101279
03:00+5ese2286100 0.0 101222
06:00+6se2778100 0.0 1012190
09:00+11sse3852100 0.0 1011517
12:00+14s51146100 0.0 10091709
15:00+15sse51043100 0.1 10071984
18:00+12sse51158100 1.2 10061412
21:00+10se51279100 3.9 10041101
12 may, wed
wed1200:00+10sse71685100 2.9 10011117
03:00+9se61590100 4.7 9991054
06:00+8se61593100 4.1 996950
09:00+9se61487100 6.8 9951033
12:00+13se597284 1.5 9941342
15:00+13sse356993 3.3 993597
18:00+10wsw139098 1.8 995212
21:00+7nw51191100 2.4 998566
13 may, thu
thu1300:00+6nw5119199 0.0 1000620
03:00+6nw41193100 0.6 1001697
06:00+5wnw411895 0.1 1004609
09:00+9nw58645 0.1 1004911
12:00+14nw58400 0.0 10051441
15:00+17nnw483222 0.0 10042663
18:00+15nnw223889 0.0 10041689
21:00+8n2587100 1.7 1007213